Location: Chircca
(13.7944°S, 72.0608°W)
Time: 06:18:07
(UTC+00:00)

Cosmos 2297 Rocket - Pass Details

Date: 14 July 2020
Orbit: 839 x 844 km, 71.0° (Epoch: 14 August)

Event Time Altitude Azimuth Distance (km) Brightness Sun altitude
Exits shadow 09:49:52 17° 197° (SSW) 1,991 3.8 -19.7°
Maximum altitude 09:54:16 88° 285° (WNW) 845 2.1 -18.7°
Drops below altitude 10° 09:59:54 10° 15° (NNE) 2,442 5.0 -17.4°
Sets 10:02:19 0° 15° (NNE) 3,371 5.8 -16.9°
